FW8879 Weather Reports


time (UTC)temp
C
wind
direction
speed
KPH
gust
KPH
rain 1hr
cm
rain 24hr
cm
rain mn
cm
humidity
%
barometer
mb
20260506143554 25 114 4.8 4.8 0.00 0.00 0.00 92 1006.7
20260506143052 25 114 0.0 0.0 0.00 0.00 0.00 93 1006.7
20260506142550 25 114 0.0 0.0 0.00 0.00 0.00 93 1006.7
20260506142048 24 103 4.8 4.8 0.00 0.00 0.00 93 1006.3
20260506141545 25 128 9.7 9.7 0.00 0.00 0.00 93 1006.3
20260506141044 25 126 4.8 4.8 0.00 0.00 0.00 94 1005.7
20260506140541 24 118 4.8 4.8 0.00 0.00 0.00 94 1006.0
20260506140038 24 133 0.0 0.0 0.00 0.00 0.00 94 1006.0
20260506135535 24 138 8.0 8.0 0.00 0.00 0.00 94 1006.0
20260506135031 24 101 4.8 4.8 0.00 0.00 0.00 94 1005.7
20260506134527 24 128 3.2 3.2 0.00 0.00 0.00 95 1005.7
20260506134024 24 138 3.2 3.2 0.00 0.00 0.00 95 1006.0
20260506133521 24 149 4.8 4.8 0.00 0.00 0.00 95 1006.0
20260506133018 24 149 4.8 4.8 0.00 0.00 0.00 95 1005.7
20260506132515 23 149 0.0 0.0 0.00 0.00 0.00 95 1005.7
20260506132012 23 149 0.0 0.0 0.00 0.00 0.00 95 1005.7
20260506131509 23 149 4.8 4.8 0.00 0.00 0.00 95 1005.7
20260506131006 24 149 0.0 0.0 0.00 0.00 0.00 95 1005.7
20260506130502 23 149 0.0 0.0 0.00 0.00 0.00 95 1006.0
20260506130000 23 149 0.0 0.0 0.00 0.00 0.00 95 1005.7
20260506125458 23 150 0.0 0.0 0.00 0.00 0.00 95 1006.0
20260506124955 23 150 0.0 0.0 0.00 0.00 0.00 94 1005.7
20260506124453 23 150 0.0 0.0 0.00 0.00 0.00 94 1005.7
20260506123951 23 150 0.0 0.0 0.00 0.00 0.00 94 1005.7
20260506123449 23 162 0.0 0.0 0.00 0.00 0.00 94 1005.7
20260506122946 23 162 0.0 0.0 0.00 0.00 0.00 94 1005.7
20260506122443 23 162 0.0 0.0 0.00 0.00 0.00 94 1005.7
20260506121941 23 162 0.0 0.0 0.00 0.00 0.00 94 1005.7
20260506121438 23 162 0.0 0.0 0.00 0.00 0.00 94 1005.7
20260506120934 23 162 0.0 0.0 0.00 0.00 0.00 94 1005.7
20260506120432 23 162 0.0 0.0 0.00 0.00 0.00 94 1005.7
20260506115929 23 162 0.0 0.0 0.00 0.00 0.00 94 1006.0
20260506115427 23 162 0.0 0.0 0.00 0.00 0.00 93 1005.7
20260506114925 23 162 0.0 0.0 0.00 0.00 0.00 93 1005.7
20260506114423 23 162 0.0 0.0 0.00 0.00 0.00 93 1005.7
20260506113921 23 162 0.0 0.0 0.00 0.00 0.00 93 1005.7
20260506113419 23 162 0.0 0.0 0.00 0.00 0.00 93 1005.7
20260506112915 23 162 0.0 0.0 0.00 0.00 0.00 93 1005.7
20260506112413 23 162 0.0 0.0 0.00 0.00 0.00 93 1005.3
20260506111910 23 162 0.0 0.0 0.00 0.00 0.00 93 1005.3
20260506111408 23 162 4.8 4.8 0.00 0.00 0.00 93 1005.0
20260506110905 24 162 0.0 0.0 0.00 0.00 0.00 93 1005.3
20260506110402 24 162 3.2 3.2 0.00 0.00 0.00 93 1005.3
20260506105858 24 162 4.8 4.8 0.00 0.00 0.00 93 1005.0
20260506105355 24 120 8.0 9.7 0.00 0.00 0.00 93 1005.0
20260506104852 24 167 4.8 4.8 0.00 0.00 0.00 93 1005.3
20260506104350 24 128 3.2 3.2 0.00 0.00 0.00 93 1005.0
20260506103848 24 128 8.0 8.0 0.00 0.00 0.00 93 1005.0
20260506103345 24 128 0.0 0.0 0.00 0.00 0.00 93 1005.0
20260506102842 24 128 6.4 6.4 0.00 0.00 0.00 93 1005.0
20260506102340 24 128 4.8 4.8 0.00 0.00 0.00 93 1004.7
20260506101837 24 128 4.8 4.8 0.00 0.00 0.00 93 1004.7
20260506101333 24 128 3.2 3.2 0.00 0.00 0.00 93 1005.0
20260506100831 24 128 3.2 3.2 0.00 0.00 0.00 93 1004.7
20260506100329 24 192 4.8 4.8 0.00 0.00 0.00 93 1004.7
20260506095827 24 161 6.4 6.4 0.00 0.00 0.00 93 1004.7
20260506095324 24 161 4.8 4.8 0.00 0.00 0.00 93 1004.3
20260506094821 24 167 4.8 4.8 0.00 0.00 0.00 93 1004.3
20260506094320 24 135 12.9 12.9 0.00 0.00 0.00 93 1004.0
20260506093817 24 156 4.8 4.8 0.00 0.00 0.00 93 1004.0
20260506093314 24 156 4.8 4.8 0.00 0.00 0.00 93 1004.3
20260506092812 24 180 4.8 4.8 0.00 0.00 0.00 93 1004.3
20260506092309 24 174 8.0 8.0 0.00 0.00 0.00 93 1004.0
20260506091807 24 156 9.7 9.7 0.00 0.00 0.00 93 1004.3
20260506091304 24 115 16.1 16.1 0.00 0.00 0.00 93 1004.0
20260506090802 24 175 9.7 9.7 0.00 0.00 0.00 93 1004.7
20260506090259 24 163 8.0 8.0 0.00 0.00 0.00 93 1004.3
20260506085755 24 121 6.4 6.4 0.00 0.00 0.00 93 1004.3
20260506085251 24 174 6.4 6.4 0.00 0.00 0.00 93 1004.3
20260506084748 24 171 6.4 6.4 0.00 0.00 0.00 93 1004.3
20260506084244 24 150 14.5 14.5 0.00 0.00 0.00 93 1004.0
20260506083742 24 145 9.7 9.7 0.00 0.00 0.00 93 1004.0
20260506083239 24 169 9.7 11.3 0.00 0.00 0.00 93 1004.0
20260506082737 23 163 4.8 4.8 0.00 0.00 0.00 93 1004.3
20260506082232 23 163 14.5 16.1 0.00 0.00 0.00 93 1004.0
20260506081730 23 184 12.9 14.5 0.00 0.00 0.00 93 1004.3
20260506081227 23 138 11.3 11.3 0.00 0.00 0.00 94 1004.3
20260506080725 23 149 6.4 6.4 0.00 0.00 0.00 94 1004.0
20260506080221 23 128 12.9 12.9 0.00 0.00 0.00 94 1004.0
20260506073205 23 139 6.4 6.4 0.00 0.00 0.00 94 1004.3
20260506072702 23 146 11.3 11.3 0.00 0.00 0.00 94 1004.3
20260506072200 23 146 16.1 17.7 0.00 0.00 0.00 94 1004.3
20260506071657 23 108 8.0 9.7 0.00 0.00 0.00 94 1004.7
20260506071155 23 152 9.7 11.3 0.00 0.00 0.00 94 1004.7
20260506070651 23 192 8.0 9.7 0.00 0.00 0.00 94 1004.7
20260506070148 23 127 8.0 8.0 0.00 0.00 0.00 94 1005.0
20260506062126 23 144 12.9 14.5 0.00 0.00 0.00 94 1005.0
20260506061621 23 130 11.3 12.9 0.00 0.00 0.00 94 1005.0
20260506061120 23 130 11.3 12.9 0.00 0.00 0.00 93 1004.7
20260506060618 23 127 11.3 12.9 0.00 0.00 0.00 93 1005.0
20260506060114 23 144 11.3 11.3 0.00 0.00 0.00 93 1005.0
20260506051046 24 137 14.5 14.5 0.00 0.00 0.00 92 1004.7
20260506050544 24 130 12.9 12.9 0.00 0.00 0.00 92 1004.7
20260506045034 24 145 14.5 14.5 0.00 0.00 0.00 92 1005.0
20260506044532 24 115 6.4 6.4 0.00 0.00 0.00 92 1005.0
20260506044029 24 161 16.1 16.1 0.00 0.00 0.00 92 1005.0
20260506043526 24 120 8.0 9.7 0.00 0.00 0.00 92 1004.7
20260506043025 24 147 9.7 11.3 0.00 0.00 0.00 92 1004.7
20260506042523 24 125 17.7 19.3 0.00 0.00 0.00 92 1004.7
20260506042021 24 126 11.3 12.9 0.00 0.00 0.00 91 1005.0
20260506041519 24 124 6.4 6.4 0.00 0.00 0.00 91 1005.0
20260506041016 24 131 8.0 9.7 0.00 0.00 0.00 91 1004.7
20260506040514 24 127 16.1 16.1 0.00 0.00 0.00 91 1004.7
20260506040009 24 126 9.7 11.3 0.00 0.00 0.00 91 1004.3
20260506035506 24 126 6.4 6.4 0.00 0.00 0.00 91 1004.3
20260506035003 25 150 12.9 14.5 0.00 0.00 0.00 91 1004.0
20260506034501 25 134 11.3 12.9 0.00 0.00 0.00 90 1004.0
20260506033957 25 147 22.5 25.7 0.00 0.00 0.00 90 1004.0
20260506033455 25 133 11.3 11.3 0.00 0.00 0.00 90 1004.0
20260506032951 25 138 14.5 14.5 0.00 0.00 0.00 90 1004.0
20260506032449 25 138 9.7 9.7 0.00 0.00 0.00 90 1004.3
20260506031945 25 133 11.3 12.9 0.00 0.00 0.00 90 1003.6
20260506031443 25 132 14.5 16.1 0.00 0.00 0.00 90 1004.0
20260506030940 25 128 14.5 14.5 0.00 0.00 0.00 89 1003.6
20260506030438 25 131 17.7 19.3 0.00 0.00 0.00 89 1004.0
20260506025934 25 124 9.7 11.3 0.00 0.00 0.00 89 1004.0
20260506025431 25 124 9.7 9.7 0.00 0.00 0.00 89 1004.0
20260506024928 25 155 14.5 14.5 0.00 0.00 0.00 88 1003.6
20260506024425 25 130 11.3 11.3 0.00 0.00 0.00 88 1003.6
20260506023921 25 120 11.3 12.9 0.00 0.00 0.00 88 1003.6
20260506023418 25 134 14.5 14.5 0.00 0.00 0.00 87 1003.6
20260506022914 25 138 14.5 14.5 0.00 0.00 0.00 87 1003.3
20260506022412 25 131 8.0 8.0 0.00 0.00 0.00 87 1003.6
20260506021910 25 144 9.7 9.7 0.00 0.00 0.00 86 1003.3
20260506021407 25 132 6.4 6.4 0.00 0.00 0.00 86 1003.6
20260506020903 25 157 9.7 9.7 0.00 0.00 0.00 86 1003.6
20260506020402 25 144 14.5 14.5 0.00 0.00 0.00 87 1003.3
20260506015859 25 162 11.3 12.9 0.00 0.00 0.00 86 1003.3
20260506015356 25 126 12.9 14.5 0.00 0.00 0.00 87 1003.3
20260506014853 25 147 9.7 9.7 0.00 0.00 0.00 86 1003.3
20260506014350 25 128 9.7 11.3 0.00 0.00 0.00 86 1003.3
20260506013846 25 125 12.9 14.5 0.00 0.00 0.00 86 1003.3
20260506013344 25 132 6.4 6.4 0.00 0.00 0.00 86 1003.3
20260506012840 25 134 6.4 6.4 0.00 0.00 0.00 86 1003.0
20260506012337 25 126 11.3 11.3 0.00 0.00 0.00 86 1003.0
20260506011834 25 147 20.9 22.5 0.00 0.00 0.00 86 1003.0
20260506011331 26 113 11.3 11.3 0.00 0.00 0.00 85 1003.0
20260506010829 26 116 8.0 9.7 0.00 0.00 0.00 85 1002.6
20260506010326 26 126 6.4 6.4 0.00 0.00 0.00 85 1002.3
20260506005823 26 132 12.9 14.5 0.00 0.00 0.00 84 1002.6
20260506005320 26 155 17.7 19.3 0.00 0.00 0.00 84 1002.6
20260506004816 26 138 12.9 12.9 0.00 0.00 0.00 84 1002.6
20260506004314 26 133 9.7 11.3 0.00 0.00 0.00 84 1002.3
20260506003809 26 132 9.7 9.7 0.00 0.00 0.00 83 1001.9
20260506003306 26 120 14.5 14.5 0.00 0.00 0.00 83 1001.9
20260506002802 26 126 16.1 17.7 0.00 0.00 0.00 82 1002.3
20260506002259 26 126 12.9 14.5 0.00 0.00 0.00 82 1002.3
20260506001754 26 156 16.1 17.7 0.00 0.00 0.00 82 1002.3
20260506001252 27 127 19.3 22.5 0.00 0.00 0.00 82 1002.3
20260506000749 27 126 20.9 24.1 0.00 0.00 0.00 82 1002.3
20260506000247 27 128 12.9 14.5 0.00 0.00 0.00 81 1002.3
20260505235743 26 128 9.7 11.3 0.00 0.00 0.00 81 1002.3
20260505235241 26 121 16.1 16.1 0.00 0.00 0.00 81 1001.9
20260505234737 26 121 17.7 19.3 0.00 0.00 0.00 81 1002.3
20260505234235 27 138 12.9 14.5 0.00 0.00 0.00 80 1002.3
20260505233731 27 134 9.7 11.3 0.00 0.00 0.00 80 1002.3
20260505233230 27 144 11.3 12.9 0.00 0.00 0.00 80 1002.3
20260505232726 27 122 14.5 14.5 0.00 0.00 0.00 80 1002.3
20260505232224 27 128 11.3 12.9 0.00 0.00 0.00 80 1001.9
20260505231720 27 128 14.5 14.5 0.00 0.00 0.00 80 1001.9
20260505231220 27 132 16.1 16.1 0.00 0.00 0.00 80 1001.9
20260505230717 27 132 17.7 17.7 0.00 0.00 0.00 80 1001.9
20260505230214 27 133 14.5 14.5 0.00 0.00 0.00 80 1001.9
20260505225710 27 144 14.5 14.5 0.00 0.00 0.00 79 1002.3
20260505225207 27 156 12.9 14.5 0.00 0.00 0.00 79 1001.9
20260505224702 27 127 17.7 17.7 0.00 0.00 0.00 78 1001.9
20260505224201 28 114 19.3 19.3 0.00 0.00 0.00 76 1001.9
20260505223658 28 156 16.1 16.1 0.00 0.00 0.00 75 1001.9
20260505223153 28 180 19.3 22.5 0.00 0.00 0.00 74 1001.9
20260505222650 28 173 14.5 14.5 0.00 0.00 0.00 74 1002.3
20260505222146 28 146 12.9 14.5 0.00 0.00 0.00 74 1002.3
20260505221643 28 162 19.3 20.9 0.00 0.00 0.00 73 1002.3
20260505221140 28 150 16.1 16.1 0.00 0.00 0.00 75 1002.3
20260505220637 28 138 14.5 14.5 0.00 0.00 0.00 74 1002.3
20260505220135 28 168 14.5 16.1 0.00 0.00 0.00 74 1002.3
20260505215632 28 132 19.3 20.9 0.00 0.00 0.00 73 1001.9
20260505215130 29 132 19.3 22.5 0.00 0.00 0.00 71 1002.3
20260505214628 28 162 19.3 22.5 0.00 0.00 0.00 71 1002.3
20260505214125 28 156 11.3 12.9 0.00 0.00 0.00 75 1001.9
20260505213622 28 179 16.1 16.1 0.00 0.00 0.00 73 1002.3
20260505213119 29 174 14.5 14.5 0.00 0.00 0.00 71 1002.3
20260505212615 29 146 9.7 9.7 0.00 0.00 0.00 74 1002.3
20260505212113 29 191 12.9 14.5 0.00 0.00 0.00 71 1002.3
20260505211609 28 174 16.1 16.1 0.00 0.00 0.00 73 1002.3
20260505211107 28 146 11.3 12.9 0.00 0.00 0.00 73 1002.3
20260505210603 28 190 14.5 16.1 0.00 0.00 0.00 73 1002.6
20260505210100 29 198 9.7 9.7 0.00 0.00 0.00 71 1002.6
20260505205558 29 192 11.3 12.9 0.00 0.00 0.00 71 1003.0
20260505205055 28 220 11.3 12.9 0.00 0.00 0.00 74 1003.0
20260505204552 28 207 14.5 14.5 0.00 0.00 0.00 73 1003.3
20260505204050 28 214 22.5 25.7 0.00 0.00 0.00 74 1003.0
20260505203546 28 146 14.5 14.5 0.00 0.00 0.00 74 1003.3
20260505203043 29 264 11.3 12.9 0.00 0.00 0.00 72 1003.3
20260505202539 29 198 16.1 17.7 0.00 0.00 0.00 72 1003.0
20260505202035 30 150 6.4 6.4 0.00 0.00 0.00 71 1003.3
20260505201532 29 181 4.8 4.8 0.00 0.00 0.00 72 1003.3
20260505201030 28 144 6.4 6.4 0.00 0.00 0.00 73 1003.6
20260505200528 28 134 6.4 6.4 0.00 0.00 0.00 77 1004.0
20260505200024 28 156 8.0 9.7 0.00 0.00 0.00 75 1004.0
20260505195520 28 162 4.8 4.8 0.00 0.00 0.00 73 1003.6
20260505195018 28 216 9.7 11.3 0.00 0.00 0.00 72 1004.0
20260505194515 28 138 17.7 17.7 0.00 0.00 0.00 73 1003.6
20260505194010 28 173 8.0 8.0 0.00 0.00 0.00 75 1004.0
20260505193508 28 150 17.7 19.3 0.00 0.00 0.00 73 1004.0
20260505193005 28 182 8.0 8.0 0.00 0.00 0.00 75 1004.0
20260505192503 28 178 14.5 16.1 0.00 0.00 0.00 74 1004.0
20260505192001 28 186 11.3 12.9 0.00 0.00 0.00 75 1004.0
20260505191459 27 150 12.9 14.5 0.00 0.00 0.00 77 1004.3
20260505190956 27 180 6.4 6.4 0.00 0.00 0.00 77 1004.0
20260505190450 27 198 14.5 14.5 0.00 0.00 0.00 77 1004.3
20260505185946 27 138 4.8 4.8 0.00 0.00 0.00 78 1004.3
20260505185444 27 168 8.0 9.7 0.00 0.00 0.00 77 1004.0
20260505184940 27 222 11.3 12.9 0.00 0.00 0.00 76 1004.3
20260505184437 27 156 22.5 25.7 0.00 0.00 0.00 76 1004.3
20260505183933 27 177 12.9 14.5 0.00 0.00 0.00 78 1004.3
20260505183430 27 165 6.4 6.4 0.00 0.00 0.00 78 1004.7
20260505182927 27 168 11.3 12.9 0.00 0.00 0.00 78 1004.7
20260505182424 26 146 11.3 11.3 0.00 0.00 0.00 80 1004.3
20260505181920 26 164 19.3 20.9 0.00 0.00 0.00 80 1004.7
20260505181418 26 150 8.0 8.0 0.00 0.00 0.00 81 1004.7
20260505180914 26 156 12.9 14.5 0.00 0.00 0.00 80 1004.3
20260505180411 27 152 17.7 19.3 0.00 0.00 0.00 80 1004.7
20260505175908 26 204 17.7 19.3 0.00 0.00 0.00 80 1004.7
20260505175404 26 156 17.7 19.3 0.00 0.00 0.00 81 1004.7
20260505174900 26 184 8.0 8.0 0.00 0.00 0.00 81 1005.0
20260505174358 26 181 12.9 14.5 0.00 0.00 0.00 80 1004.7
20260505173854 26 195 8.0 8.0 0.00 0.00 0.00 80 1005.0
20260505173350 26 168 11.3 11.3 0.00 0.00 0.00 80 1004.7
20260505172848 26 171 17.7 20.9 0.00 0.00 0.00 80 1005.0
20260505172345 26 186 12.9 12.9 0.00 0.00 0.00 81 1005.0
20260505171845 26 180 19.3 22.5 0.00 0.00 0.00 81 1005.0
20260505171342 26 188 14.5 14.5 0.00 0.00 0.00 81 1004.7
20260505170838 26 174 14.5 14.5 0.00 0.00 0.00 81 1005.0
20260505170335 26 168 9.7 9.7 0.00 0.00 0.00 81 1005.0
20260505165831 26 174 6.4 6.4 0.00 0.00 0.00 82 1005.0
20260505165326 26 180 11.3 12.9 0.00 0.00 0.00 82 1005.0
20260505164822 26 186 11.3 11.3 0.00 0.00 0.00 82 1005.0
20260505164319 26 234 8.0 9.7 0.00 0.00 0.00 82 1005.3
20260505163818 25 138 17.7 17.7 0.00 0.00 0.00 82 1005.3
20260505163316 25 163 4.8 4.8 0.00 0.00 0.00 82 1005.0
20260505162814 25 300 9.7 11.3 0.00 0.00 0.00 83 1005.0
20260505162310 25 222 11.3 11.3 0.00 0.00 0.00 85 1005.0
20260505161807 25 174 14.5 16.1 0.00 0.00 0.00 85 1005.0
20260505161304 25 162 9.7 9.7 0.00 0.00 0.00 86 1005.0
20260505160802 25 180 9.7 9.7 0.00 0.00 0.00 87 1005.3
20260505160259 25 150 11.3 11.3 0.00 0.00 0.00 87 1005.0
20260505153238 23 154 9.7 9.7 0.00 0.00 0.00 90 1005.0
20260505152735 23 167 11.3 11.3 0.00 0.00 0.00 90 1005.0
20260505152231 23 156 9.7 9.7 0.00 0.00 0.00 90 1005.0
20260505151726 23 174 11.3 12.9 0.00 0.00 0.00 90 1005.0
20260505151224 23 163 9.7 11.3 0.00 0.00 0.00 90 1005.0
20260505150720 23 153 12.9 14.5 0.00 0.00 0.00 91 1005.0
20260505150217 23 167 16.1 16.1 0.00 0.00 0.00 91 1005.0